Weather reports worldwide

Advertisment
Lefkopa, Cyprus (17515): temperature & dewpoint: 09.12.2018 08:00:00 - 15.12.2018 08:00:00 (EET)Lefkopa, Cyprus (17515): wind speed: 09.12.2018 08:00:00 - 15.12.2018 08:00:00 (EET)Lefkopa, Cyprus (17515): wind direction: 09.12.2018 08:00:00 - 15.12.2018 08:00:00 (EET)Lefkopa, Cyprus (17515): reduced air pressure: 09.12.2018 08:00:00 - 15.12.2018 08:00:00 (EET)Lefkopa, Cyprus (17515): visibility: 09.12.2018 08:00:00 - 15.12.2018 08:00:00 (EET)
Date & Time tt [°C] td [°C] ff [km/h] ff [kn] dd ppp [hPa] vv [km]
15.12.2018 08:00:00 - - - - - - -
15.12.2018 07:00:00 11,5 10,3 0 0 N 1026,7 10
15.12.2018 06:00:00 11,6 10,3 0 0 N 1026,6 10
15.12.2018 05:00:00 11,9 10,7 5 3 SE 1026,5 10
15.12.2018 04:00:00 11,8 10,5 0 0 N 1026,7 10
15.12.2018 03:00:00 11,8 10,4 0 0 N 1026,9 10
15.12.2018 02:00:00 12,0 10,7 5 3 NE 1027,2 10
15.12.2018 01:00:00 11,8 10,5 5 3 NE 1027,2 10
15.12.2018 00:00:00 12,0 10,5 0 0 N 1027,5 10
14.12.2018 23:00:00 12,3 10,5 0 0 N 1027,6 10
14.12.2018 22:00:00 12,6 10,4 5 3 NE 1027,8 8
14.12.2018 21:00:00 13,4 10,9 0 0 N 1027,8 10
14.12.2018 20:00:00 12,4 10,5 5 3 N 1027,7 10
14.12.2018 19:00:00 12,6 10,3 0 0 N 1027,5 10
14.12.2018 18:00:00 13,3 10,4 0 0 N 1027,2 10
14.12.2018 17:00:00 15,0 10,1 11 6 NE 1026,5 10
14.12.2018 16:00:00 15,8 10,0 13 7 NE 1026,4 10
14.12.2018 15:00:00 16,1 9,6 15 8 NE 1026,1 10
14.12.2018 14:00:00 17,0 9,9 21 11 NNE 1012,5 10
14.12.2018 13:00:00 16,4 8,9 18 10 NNE 1025,9 10
14.12.2018 12:00:00 15,1 6,8 15 8 ENE 1026,7 10
14.12.2018 11:00:00 15,1 7,3 15 8 NE 1027,3 10
14.12.2018 10:00:00 11,6 6,4 9 5 NNE 1017,9 10
14.12.2018 09:00:00 8,1 5,2 0 0 N 1027,4 10
14.12.2018 08:00:00 6,6 4,4 0 0 N 1027,6 10
14.12.2018 07:00:00 5,8 3,8 0 0 N 1027,2 10
14.12.2018 06:00:00 5,9 3,6 0 0 N 1026,9 10
14.12.2018 05:00:00 3,8 2,0 0 0 N 1026,9 10
14.12.2018 04:00:00 3,8 2,1 0 0 N 1027,1 10
14.12.2018 03:00:00 3,8 2,1 0 0 N 1027,7 10
14.12.2018 02:00:00 4,8 2,9 0 0 N 1027,6 10
14.12.2018 01:00:00 5,3 3,5 0 0 N 1027,5 10
14.12.2018 00:00:00 4,8 2,8 0 0 N 1027,7 10
13.12.2018 23:00:00 6,5 4,5 0 0 N 1027,5 10
13.12.2018 22:00:00 6,5 4,1 0 0 N 1027,4 10
13.12.2018 21:00:00 6,6 4,0 0 0 N 1027,2 10
13.12.2018 20:00:00 8,8 4,5 0 0 N 1026,7 10
13.12.2018 19:00:00 9,2 4,3 0 0 N 1026,2 10
13.12.2018 18:00:00 11,7 3,7 0 0 N 1025,8 10
13.12.2018 17:00:00 13,0 3,5 8 4 SW 1025,3 10
13.12.2018 16:00:00 14,3 2,2 9 5 WSW 1024,6 10
13.12.2018 15:00:00 14,8 0,3 9 5 WSW 1024,5 10
13.12.2018 14:00:00 15,2 1,1 16 9 WSW 1024,3 10
13.12.2018 13:00:00 15,0 1,0 13 7 W 1024,5 10
13.12.2018 12:00:00 14,7 0,7 16 9 WSW 1024,5 10
13.12.2018 11:00:00 14,9 2,1 18 10 WSW 1024,9 10
13.12.2018 10:00:00 - - - - - - -
13.12.2018 09:00:00 8,0 5,6 0 0 N 1024,5 10
13.12.2018 08:00:00 7,1 5,0 0 0 N 1024,1 10
13.12.2018 07:00:00 6,7 4,3 0 0 N 1023,6 10
13.12.2018 06:00:00 10,5 5,4 0 0 N 1022,1 10
13.12.2018 05:00:00 10,9 5,4 0 0 N 1022,1 10
13.12.2018 04:00:00 11,2 5,1 11 6 S 1021,8 10
13.12.2018 03:00:00 11,8 4,3 15 8 S 1021,2 10
13.12.2018 02:00:00 12,3 3,7 8 4 S 1020,3 10
13.12.2018 01:00:00 12,0 4,0 0 0 N 1020,2 10
13.12.2018 00:00:00 12,3 4,0 0 0 N 1020,1 10
12.12.2018 23:00:00 12,7 3,0 8 4 S 1019,9 10
12.12.2018 22:00:00 13,2 2,6 8 4 SW 1019,2 10
12.12.2018 21:00:00 13,2 2,9 9 5 SW 1018,7 10
12.12.2018 20:00:00 13,1 4,2 15 8 SSW 1018,4 10
12.12.2018 19:00:00 13,6 3,4 16 9 SSW 1017,6 10
12.12.2018 18:00:00 13,7 4,9 22 12 S 1017,1 10
12.12.2018 17:00:00 14,4 4,7 9 5 SW 1016,2 10
12.12.2018 16:00:00 15,3 3,8 26 14 S 1016,0 10
12.12.2018 15:00:00 15,5 2,9 18 10 SSW 1015,3 10
12.12.2018 14:00:00 16,1 3,6 42 23 SSW 1014,3 10
12.12.2018 13:00:00 16,6 6,7 26 14 SSW 1014,4 10
12.12.2018 12:00:00 17,2 6,3 15 8 SW 1014,2 10
12.12.2018 11:00:00 15,4 8,9 11 6 W 1014,2 10
12.12.2018 10:00:00 15,9 5,6 18 10 SSW 1014,9 10
12.12.2018 09:00:00 13,6 6,8 0 0 N 1014,7 10
12.12.2018 08:00:00 14,6 6,1 5 3 SW 1014,4 10
12.12.2018 07:00:00 11,3 6,7 0 0 N 1014,5 10
12.12.2018 06:00:00 13,5 6,3 8 4 SSW 1014,0 10
12.12.2018 05:00:00 12,4 7,2 5 3 S 1014,0 10
12.12.2018 04:00:00 13,4 7,3 5 3 S 1013,8 10
12.12.2018 03:00:00 14,5 8,4 13 7 S 1013,8 10
12.12.2018 02:00:00 13,1 10,5 0 0 N 1014,0 10
12.12.2018 01:00:00 13,3 10,5 0 0 N 1013,8 10
12.12.2018 00:00:00 13,1 11,2 0 0 N 1014,5 10
11.12.2018 23:00:00 13,3 11,1 0 0 N 1014,5 10
11.12.2018 22:00:00 13,2 10,2 0 0 N 1014,2 8
11.12.2018 21:00:00 13,6 9,9 8 4 N 1014,3 10
11.12.2018 20:00:00 13,4 10,4 0 0 N 1015,0 8
11.12.2018 19:00:00 13,4 10,1 0 0 N 1015,2 10
11.12.2018 18:00:00 14,8 9,4 11 6 SE 1015,8 8
11.12.2018 17:00:00 16,0 9,1 5 3 WSW 1015,7 8
11.12.2018 16:00:00 17,2 8,2 22 12 W 1015,7 10
11.12.2018 15:00:00 18,2 7,8 18 10 W 1015,6 10
11.12.2018 14:00:00 18,2 8,1 24 13 WSW 1015,2 10
11.12.2018 13:00:00 17,7 9,0 26 14 WSW 1015,2 10
11.12.2018 12:00:00 17,1 7,7 37 20 WSW 1015,5 10
11.12.2018 11:00:00 19,0 10,6 0 0 N 1014,0 10
11.12.2018 10:00:00 17,2 10,5 0 0 N 1014,0 10
11.12.2018 09:00:00 - - - - - - -
11.12.2018 08:00:00 12,8 9,8 0 0 N 1012,0 10
11.12.2018 07:00:00 - - - - - - -
11.12.2018 06:00:00 - - - - - - -
11.12.2018 05:00:00 - - - - - - -
11.12.2018 04:00:00 - - - - - - -
11.12.2018 03:00:00 17,4 7,0 13 7 SSE 1011,5 10
11.12.2018 02:00:00 16,6 8,3 9 5 SE 1011,3 10
11.12.2018 01:00:00 14,9 8,5 5 3 ESE - 10
11.12.2018 00:00:00 12,9 10,3 0 0 N 1012,3 10
10.12.2018 23:00:00 15,6 10,8 0 0 N 1013,0 10
10.12.2018 22:00:00 16,3 10,8 16 9 ESE 1013,5 10
10.12.2018 21:00:00 16,3 10,3 18 10 ESE 1013,7 10
10.12.2018 20:00:00 15,8 9,1 15 8 E 1014,3 10
10.12.2018 19:00:00 14,4 8,7 0 0 N 1015,1 10
10.12.2018 18:00:00 16,3 7,3 5 3 SE 1015,2 10
10.12.2018 17:00:00 17,0 7,6 5 3 SE 1015,1 10
10.12.2018 16:00:00 18,3 7,3 5 3 SW 1014,8 10
10.12.2018 15:00:00 19,3 7,6 16 9 SSW 1014,5 10
10.12.2018 14:00:00 19,5 8,7 13 7 SW 1014,5 10
10.12.2018 13:00:00 19,6 12,1 5 3 E 1014,6 10
10.12.2018 12:00:00 18,6 11,5 0 0 N 1015,4 10
10.12.2018 11:00:00 17,3 12,1 5 3 ENE 1016,1 10
10.12.2018 10:00:00 15,4 12,0 9 5 ENE 1016,7 10
10.12.2018 09:00:00 13,0 11,5 0 0 N 1016,5 10
10.12.2018 08:00:00 11,8 10,3 0 0 N 1016,4 10
10.12.2018 07:00:00 12,0 10,4 8 4 NNE 1016,2 10
10.12.2018 06:00:00 12,4 9,9 9 5 NNE 1015,9 10
10.12.2018 05:00:00 12,2 9,5 0 0 N 1015,8 8
10.12.2018 04:00:00 12,1 9,7 8 4 NNE 1016,7 8
10.12.2018 03:00:00 11,7 9,0 0 0 N 1017,5 8
10.12.2018 02:00:00 12,4 9,1 9 5 NNE 1017,8 10
10.12.2018 01:00:00 12,1 8,7 8 4 NE 1018,4 10
10.12.2018 00:00:00 11,3 8,5 5 3 NNE 1019,0 10
09.12.2018 23:00:00 11,4 9,0 16 9 NNE 1019,0 10
09.12.2018 22:00:00 11,2 8,8 0 0 N 1019,2 10
09.12.2018 21:00:00 11,3 8,9 0 0 N 1019,5 10
09.12.2018 20:00:00 12,5 9,4 0 0 N 1019,9 10
09.12.2018 19:00:00 13,4 9,3 0 0 N 1019,8 10
09.12.2018 18:00:00 14,6 9,5 0 0 N 1019,2 10
09.12.2018 17:00:00 16,0 9,3 0 0 N 1018,8 10
09.12.2018 16:00:00 17,9 8,7 8 4 W 1018,4 10
09.12.2018 15:00:00 19,0 8,0 0 0 N 1018,5 10
09.12.2018 14:00:00 18,6 8,4 8 4 N 1018,5 10
09.12.2018 13:00:00 18,9 8,5 5 3 NNW 1018,9 10
09.12.2018 12:00:00 17,8 7,4 0 0 N 1019,5 10
09.12.2018 11:00:00 17,4 8,1 8 4 W 1020,4 10
09.12.2018 10:00:00 15,1 8,7 0 0 N 1020,9 10
09.12.2018 09:00:00 9,8 8,0 0 0 N 1020,7 10
09.12.2018 08:00:00 7,9 6,6 0 0 N 1020,6 10

tt = temperature
td = dewpoint
ff = wind speed
dd = wind direction
ppp = reduced air pressure
vv = visibility

Next stations